TimeEST,TemperatureF,Dew PointF,Humidity,Sea Level PressureIn,VisibilityMPH,Wind Direction,Wind SpeedMPH,Gust SpeedMPH,PrecipitationIn,Events,Conditions,WindDirDegrees,DateUTC
12:53 AM,28.0,19.0,69,30.17,10.0,WSW,3.5,-,N/A,,Overcast,250,2013-02-25 05:53:00
1:53 AM,28.0,19.0,69,30.18,10.0,Calm,Calm,-,N/A,,Overcast,0,2013-02-25 06:53:00
2:53 AM,28.0,19.9,72,30.18,10.0,Calm,Calm,-,N/A,,Overcast,0,2013-02-25 07:53:00
3:53 AM,28.0,19.0,69,30.17,10.0,Calm,Calm,-,N/A,,Overcast,0,2013-02-25 08:53:00
4:53 AM,28.0,19.9,72,30.17,10.0,Calm,Calm,-,N/A,,Overcast,0,2013-02-25 09:53:00
5:53 AM,27.0,19.9,75,30.20,10.0,Calm,Calm,-,N/A,,Scattered Clouds,0,2013-02-25 10:53:00
6:53 AM,27.0,19.9,75,30.22,10.0,Calm,Calm,-,N/A,,Clear,0,2013-02-25 11:53:00
7:53 AM,27.0,21.0,78,30.23,8.0,Calm,Calm,-,N/A,,Clear,0,2013-02-25 12:53:00
8:53 AM,30.9,23.0,72,30.24,9.0,Calm,Calm,-,N/A,,Clear,0,2013-02-25 13:53:00
9:53 AM,33.1,21.9,64,30.23,10.0,East,5.8,-,N/A,,Clear,100,2013-02-25 14:53:00
10:53 AM,35.1,19.9,54,30.22,10.0,East,8.1,-,N/A,,Clear,90,2013-02-25 15:53:00
11:53 AM,37.0,21.0,52,30.23,10.0,ENE,10.4,-,N/A,,Clear,60,2013-02-25 16:53:00
1:53 PM,39.9,21.0,47,30.15,10.0,ENE,10.4,17.3,N/A,,Clear,70,2013-02-25 18:53:00
2:53 PM,41.0,21.0,45,30.15,10.0,East,6.9,-,N/A,,Clear,80,2013-02-25 19:53:00
3:53 PM,41.0,21.9,47,30.14,10.0,NE,9.2,-,N/A,,Clear,50,2013-02-25 20:53:00
4:53 PM,41.0,19.9,43,30.13,10.0,ENE,9.2,-,N/A,,Clear,60,2013-02-25 21:53:00
5:53 PM,39.0,19.9,46,30.12,10.0,ENE,9.2,-,N/A,,Clear,70,2013-02-25 22:53:00
6:53 PM,37.0,19.9,50,30.14,10.0,ENE,6.9,-,N/A,,Clear,60,2013-02-25 23:53:00
7:53 PM,36.0,19.9,52,30.12,10.0,ENE,8.1,-,N/A,,Clear,70,2013-02-26 00:53:00
8:53 PM,34.0,19.9,56,30.11,10.0,ENE,8.1,-,N/A,,Clear,60,2013-02-26 01:53:00
9:53 PM,34.0,19.9,56,30.06,10.0,ENE,10.4,-,N/A,,Clear,60,2013-02-26 02:53:00
10:53 PM,34.0,19.9,56,30.08,10.0,East,6.9,-,N/A,,Clear,80,2013-02-26 03:53:00
11:53 PM,33.1,19.9,59,30.06,10.0,ENE,9.2,-,N/A,,Clear,70,2013-02-26 04:53:00